SCP
0 0 0 -0 -0 -0 -0 -0 -0 -0 -0 -0 -0 -0 -0 -0 -0 -0 -0 -0 -0 -0 -0 -0 -0 -0 0
0 0 0 -0 -0 -0 -0 -0 -0 -0 -0 -0 -0 -0 -0 -0 -0 0 0 0 0 0 0 0 0 0 0
0 0 0 0 -0 -0 -0 -0 -0 0 -0 -0 -0 -0 -0 -0 0 0 0 0 0 0 0 0 0 0 0
0 0 0 0 0 0 0 0 0 0 0 0 0 -0 -0 0 0 0 0 0 0 0 0 0 0 0 0
0 0 0 0 0 0 0 0 0 0 0 0 0 0 0 0 0 0 0 0 0 0 0 0 0 0 0
0 -0 -0 -0 0 0 0 0 0 0 0 0 0 0 0 0 0 0 0 0 0 0 0 0 0 0 0
-0 -0 -0 -0 -0 -0 -0 -0 0 0 0 0 0 0 0 0 0 0 0 0 0 0 0 0 0 0 0
-0 -0 -0 -0 -0 -0 -0 -0 -0 0 0 0 0 0 0 0 0 0 0 0 0 0 0 0 0 0 0
-0 -0 -0 -0 -0 0 0 0 0 0 0 0 0 0 0 0 0 0 0 0 0 0 0 0 0 0 0
0 0 0 0 0 0 0 0 0 0 0 0 0 0 0 0 0 0 0 0 0 0 0 0 0 0 0
0 0 0 0 0 0 0 0 0 0 0 0 0 0 0 0 0 0 0 0 0 0 0 0 0 0 0
0 0 0 0 0 0 0 0 0 0 0 0 0 0 0 0 0 0 0 0 0 0 0 0 0 0 0
0 0 0 0 0 0 0 0 0 0 0 0 0 0 0 0 0 0 0 0 0 0 0 0 0 0 0
0 0 0 0 0 0 0 0 0 0 0 0 0 0 0 0 0 0 0 0 0 0 0 0 0 0 0
0 0 0 0 0 0 0 0 0 0 0 0 0 0 0 0 0 0 0 0 0 0 0 0 0 0 0
0 0 0 0 0 0 0 0 0 0 0 0 0 0 0 0 0 0 0 0 0 0 0 0 0 0 0
Wind_Speed_500mb
25 24 22 20 19 19 20 20 20 19 18 23 21 20 20 21 24 25 25 22 15 12 9 7 13 15 18
25 23 20 18 17 15 15 15 15 16 15 16 16 16 17 19 20 22 21 19 12 9 8 6 13 18 21
26 23 21 18 16 13 12 10 11 12 13 13 11 11 12 16 16 17 17 15 13 10 5 3 7 12 18
27 24 21 18 14 11 9 7 7 9 10 11 9 8 8 9 10 11 9 7 8 11 8 1 3 9 13
30 27 24 20 17 14 11 7 5 9 7 7 8 6 5 6 7 7 6 3 6 6 5 2 2 7 9
35 31 27 24 21 18 16 13 6 5 4 4 6 4 2 4 5 5 4 1 4 5 3 3 2 5 8
41 36 34 31 27 23 22 19 13 8 5 3 1 1 0 2 4 5 4 4 3 2 3 2 4 7 12
41 41 38 37 31 30 27 24 20 15 12 11 9 7 5 4 5 6 6 6 6 7 7 6 7 11 16
34 40 37 37 34 31 29 28 26 23 22 20 17 14 12 10 9 9 8 10 10 11 11 11 13 16 20
39 40 46 42 39 36 34 32 30 27 29 29 24 20 18 17 16 15 15 13 13 13 15 17 20 25 28
40 42 48 48 46 45 40 40 36 34 31 30 30 26 26 25 24 22 22 21 21 21 22 24 28 34 41
41 41 39 51 53 53 50 48 43 39 36 35 34 33 33 32 29 28 27 28 28 31 36 35 38 46 49
49 49 48 45 52 54 54 51 50 49 44 40 36 35 36 36 32 29 31 33 33 39 44 45 46 49 54
49 47 45 43 45 50 49 49 50 49 48 47 44 41 40 38 36 33 31 29 34 36 41 47 46 55 49
49 46 45 44 42 40 47 48 49 47 47 46 44 42 44 46 44 40 38 41 39 41 45 34 19 20 51
60 58 56 54 48 40 38 38 44 46 48 47 48 48 48 50 50 48 44 43 41 44 46 43 44 45 47
Wind_Direction_500mb
147 148 143 135 125 114 104 93 87 84 80 80 82 89 92 99 110 115 119 123 124 111 101 78 56 52 48
158 155 154 147 141 128 112 99 89 82 78 75 77 85 91 95 106 117 122 126 130 120 113 67 23 36 39
168 166 165 165 159 147 132 110 100 92 81 72 78 84 97 108 120 129 133 137 147 165 173 6 42 31 30
179 178 176 177 176 168 165 134 119 115 89 69 79 100 109 119 130 139 140 143 169 185 195 294 4 28 37
191 189 189 190 191 188 200 195 151 137 106 70 71 105 131 147 161 162 154 147 161 183 199 264 340 27 31
200 200 201 203 204 202 210 223 226 157 131 92 65 84 136 174 193 194 199 238 179 179 178 205 261 346 356
207 205 207 211 213 211 217 225 240 211 215 228 256 114 159 218 221 224 241 257 253 260 253 234 250 298 326
217 210 212 215 218 218 220 225 234 232 233 238 245 253 265 262 240 244 251 255 252 259 254 247 273 296 312
238 223 218 217 216 223 226 224 231 237 240 239 241 244 250 261 265 263 265 262 262 260 259 264 277 290 297
239 241 221 224 218 219 221 228 231 240 241 245 248 249 250 253 258 261 266 269 268 268 267 275 283 288 290
240 243 228 224 223 225 230 230 235 236 244 244 248 251 252 253 255 256 258 264 269 275 279 284 291 295 292
238 242 237 227 228 229 232 236 237 236 240 243 246 247 251 253 253 256 261 266 272 278 275 278 286 283 289
232 236 239 243 229 231 233 235 239 242 240 243 247 249 251 255 260 263 263 264 268 266 278 282 287 294 292
238 244 249 255 258 237 237 237 239 238 243 243 248 254 259 263 266 270 276 278 275 278 281 290 292 302 308
246 246 248 250 251 240 238 237 239 242 243 247 247 249 256 262 264 267 267 272 278 280 290 293 291 284 306
242 243 244 251 255 263 263 253 246 247 248 248 249 253 251 256 261 262 261 272 266 282 277 285 294 290 295
Wind_Speed_850mb
25 24 22 20 19 19 20 20 20 19 18 23 21 20 20 21 24 25 25 22 15 12 9 7 13 15 18
25 23 20 18 17 15 15 15 15 16 15 16 16 16 17 19 20 22 21 19 12 9 8 6 13 18 21
26 23 21 18 16 13 12 10 11 12 13 13 11 11 12 16 16 17 17 15 13 10 5 3 7 12 18
27 24 21 18 14 11 9 7 7 9 10 11 9 8 8 9 10 11 9 7 8 11 8 1 3 9 13
30 27 24 20 17 14 11 7 5 9 7 7 8 6 5 6 7 7 6 3 6 6 5 2 2 7 9
35 31 27 24 21 18 16 13 6 5 4 4 6 4 2 4 5 5 4 1 4 5 3 3 2 5 8
41 36 34 31 27 23 22 19 13 8 5 3 1 1 0 2 4 5 4 4 3 2 3 2 4 7 12
41 41 38 37 31 30 27 24 20 15 12 11 9 7 5 4 5 6 6 6 6 7 7 6 7 11 16
34 40 37 37 34 31 29 28 26 23 22 20 17 14 12 10 9 9 8 10 10 11 11 11 13 16 20
39 40 46 42 39 36 34 32 30 27 29 29 24 20 18 17 16 15 15 13 13 13 15 17 20 25 28
40 42 48 48 46 45 40 40 36 34 31 30 30 26 26 25 24 22 22 21 21 21 22 24 28 34 41
41 41 39 51 53 53 50 48 43 39 36 35 34 33 33 32 29 28 27 28 28 31 36 35 38 46 49
49 49 48 45 52 54 54 51 50 49 44 40 36 35 36 36 32 29 31 33 33 39 44 45 46 49 54
49 47 45 43 45 50 49 49 50 49 48 47 44 41 40 38 36 33 31 29 34 36 41 47 46 55 49
49 46 45 44 42 40 47 48 49 47 47 46 44 42 44 46 44 40 38 41 39 41 45 34 19 20 51
60 58 56 54 48 40 38 38 44 46 48 47 48 48 48 50 50 48 44 43 41 44 46 43 44 45 47
Wind_Direction_850mb
147 148 143 135 125 114 104 93 87 84 80 80 82 89 92 99 110 115 119 123 124 111 101 78 56 52 48
158 155 154 147 141 128 112 99 89 82 78 75 77 85 91 95 106 117 122 126 130 120 113 67 23 36 39
168 166 165 165 159 147 132 110 100 92 81 72 78 84 97 108 120 129 133 137 147 165 173 6 42 31 30
179 178 176 177 176 168 165 134 119 115 89 69 79 100 109 119 130 139 140 143 169 185 195 294 4 28 37
191 189 189 190 191 188 200 195 151 137 106 70 71 105 131 147 161 162 154 147 161 183 199 264 340 27 31
200 200 201 203 204 202 210 223 226 157 131 92 65 84 136 174 193 194 199 238 179 179 178 205 261 346 356
207 205 207 211 213 211 217 225 240 211 215 228 256 114 159 218 221 224 241 257 253 260 253 234 250 298 326
217 210 212 215 218 218 220 225 234 232 233 238 245 253 265 262 240 244 251 255 252 259 254 247 273 296 312
238 223 218 217 216 223 226 224 231 237 240 239 241 244 250 261 265 263 265 262 262 260 259 264 277 290 297
239 241 221 224 218 219 221 228 231 240 241 245 248 249 250 253 258 261 266 269 268 268 267 275 283 288 290
240 243 228 224 223 225 230 230 235 236 244 244 248 251 252 253 255 256 258 264 269 275 279 284 291 295 292
238 242 237 227 228 229 232 236 237 236 240 243 246 247 251 253 253 256 261 266 272 278 275 278 286 283 289
232 236 239 243 229 231 233 235 239 242 240 243 247 249 251 255 260 263 263 264 268 266 278 282 287 294 292
238 244 249 255 258 237 237 237 239 238 243 243 248 254 259 263 266 270 276 278 275 278 281 290 292 302 308
246 246 248 250 251 240 238 237 239 242 243 247 247 249 256 262 264 267 267 272 278 280 290 293 291 284 306
242 243 244 251 255 263 263 253 246 247 248 248 249 253 251 256 261 262 261 272 266 282 277 285 294 290 295